sat.trackr.live / text

‹ back to catalog

SDX02

NORAD 62460 · 2024-253B

PAYLOAD ACTIVE UNKNOWN

§ Identity

Operator
Country
IND
Launch date
2024-12-30
Launch site
SRILR
Launch vehicle
Mass (kg)
RCS (m²)

External: N2YO · Heavens-Above · Gunter

§ Orbital elements

Epoch: 2026-09-22T22:15:17.982144Z

Period
90.26 min
Inclination
54.9907°
Eccentricity
0.0007906
Mean motion
15.95444460 rev/d
Perigee alt
281.8 km
Apogee alt
292.3 km
Semi-major
6,665.2 km
B*
6.5455e-4
RAAN
239.8197°
Arg perigee
75.2522°
Mean anomaly
284.9407°
Rev number
9,797

§ Raw data

SDX021 62460U 24253B   26265.92729146  .00263877  38238-4  65455-3 0  99942 62460  54.9907 239.8197 0007906  75.2522 284.9407 15.95444460 97976

JSON: /api/v1/satellites/62460 · /tle

For live sub-satellite position, see the globe view (requires WebGL).

§ Visibility from observer

Set your observer location to see the next 7 days of passes ≥ 10°. The values pass through the URL so the page stays shareable.

No JS? Fill the form by hand. The geolocation button needs JavaScript.

§ Radio — SatNOGS DB

ModeDescriptionDownlinkUplink
UNKNOWN Mode U - Transmitter - Intersatellite 436.500 MHz
BPSK S-band telemetry 2.240 GHz
BPSK S-band telemetry 2.210 GHz

3 transmitters · refreshed weekly from db.satnogs.org